Terminal Aerodrome Forecast
Issued by NWS

Home | Current Version | Previous Version | Text Only | Print | Product List | Glossary Off
Versions: 1 2 3 4 5 6 7 8 9 10 11 12 13 14 15 16 17 18 19

000
FTUS43 KMPX 250200 AAA
TAFAXN
TAF AMD
KAXN 250244Z 2503/2524 21008KT P6SM OVC006
     FM251200 VRB03KT 6SM BR OVC009
     FM251800 33004KT 4SM -SN BR OVC012=

USA.gov is the U.S. government's official web portal to all federal, state and local government web resources and services.